Regional Weather Roundup
Issued by NWS

Home | Current Version | Previous Version | Text Only | Print | Product List | Glossary On
Versions: 1 2 3 4 5 6 7 8 9 10 11 12 13 14 15 16 17 18 19 20 21 22 23 24 25 26 27 28 29 30 31 32 33 34 35 36 37 38 39 40 41 42 43 44 45 46 47 48 49 50
000
ASUS45 KREV 282310
RWRNV
NEVADA REGIONAL WEATHER ROUNDUP
NATIONAL WEATHER SERVICE RENO NV
400 PM PDT FRI APR 28 2017

NOTE: "FAIR" INDICATES FEW OR NO CLOUDS BELOW 12,000 FEET WITH NO
SIGNIFICANT WEATHER AND/OR OBSTRUCTIONS TO VISIBILITY.

NVZ001-003-004-290000-
WESTERN NEVADA

CITY           SKY/WX    TMP DP  RH WIND       PRES   REMARKS
RENO           MOSUNNY   54  14  20 N13       30.11F
CARSON CITY    FAIR      54  12  19 NE15G23   30.11S
MINDEN         FAIR      54  14  20 N15G26    30.10S
FALLON         MOSUNNY   55  10  16 NE12G24   30.10F
LOVELOCK       SUNNY     53  15  22 NE17      30.11F
HAWTHORNE      SUNNY     54   9  16 NW18G28   30.08F
$$

NVZ002-CAZ072-073-290000-
NORTHERN AND CENTRAL SIERRA

CITY           SKY/WX    TMP DP  RH WIND       PRES   REMARKS
S. LAKE TAHOE  SUNNY     46  15  28 NE15G25   30.08F
TRUCKEE        SUNNY     46  12  25 N15G26    30.11S
SQUAW VLY 8000   N/A     32  16  51 NE9         N/A
SUSANVILLE     SUNNY     55  18  22 E8        30.13F
MAMMOTH LAKES  FAIR      49  14  24 NW16G28   30.05R
$$

NVZ030-031-036-290000-
NORTHERN NEVADA

CITY           SKY/WX    TMP DP  RH WIND       PRES   REMARKS
ELKO           MOSUNNY   45  26  47 W17       30.05S
WINNEMUCCA     CLOUDY    49  21  33 N13G20    30.12S
WENDOVER       PTSUNNY   52  16  24 N18G24    29.97S
$$

NVZ035-037-290000-
CENTRAL NEVADA

CITY           SKY/WX    TMP DP  RH WIND       PRES   REMARKS
ELY            MOSUNNY   41  16  36 N16G26    29.97F
EUREKA           N/A     40  24  53 NE23G30   30.04S
$$

NVZ013-014-290000-
SOUTH CENTRAL NEVADA

CITY           SKY/WX    TMP DP  RH WIND       PRES   REMARKS
TONOPAH        PTSUNNY   53  10  18 N22G36    30.00S
$$

NVZ017-020-022-290000-
SOUTHERN NEVADA

CITY           SKY/WX    TMP DP  RH WIND       PRES   REMARKS
LAS VEGAS      MOSUNNY   70   4   7 N25G36    29.82F
N. LAS VEGAS   MOSUNNY   71   3   7 N18G29    29.82S
NELLIS AFB     MOSUNNY   71   4   7 NW18G32   29.81F
HENDERSON      SUNNY     69   8   9 N22G28    29.84F
MERCURY        MOSUNNY   64  10  12 N22G29    29.87S
$$



USA.gov is the U.S. government's official web portal to all federal, state and local government web resources and services.